{"data":{"norad_id":62601,"epoch":"2026-09-21T07:26:11.332032Z","epoch_age_seconds":101416,"freshness":"FRESH","line1":"1 62601U 25008Q   26264.30985338  .00004239  00000+0  16350-3 0  9994","line2":"2 62601  43.0008 253.0176 0001557 276.4903  83.5771 15.27573005 95544","mean_motion":15.27573005,"eccentricity":0.0001557,"inclination_deg":43.0008,"raan_deg":253.0176,"arg_perigee_deg":276.4903,"mean_anomaly_deg":83.5771,"bstar":0.0001635,"rev_number":9554,"period_min":94.267180376103,"perigee_km":482.00175172963,"apogee_km":484.13833160241,"semimajor_km":6861.207041666,"source":"CELESTRAK","updated_at":"2026-09-22T09:00:49.633102Z"}}